Lapse_Rate
0.6 0.7 0.6 0.4 0.4 0.2 0.0 0.0 -0.1 -0.2 -0.5 -0.6 -1.0 -1.2 -1.4 -1.4 -1.5 3.4 8.5 8.0 8.1 4.7 3.6 9.9 9.8 9.5 9.4 7.2 7.7 6.5 6.5 6.5 6.5 6.5 6.5 7.1 6.6 7.6 7.9 7.7 7.9 8.3 8.5 9.0 9.5
0.5 0.5 0.4 0.3 0.3 0.2 0.0 -0.1 -0.3 -0.5 -0.4 -0.7 -0.8 -1.1 -1.5 -1.5 4.0 9.0 6.4 4.6 4.1 4.3 8.5 9.2 8.7 9.0 8.4 7.9 7.9 6.9 6.5 6.5 6.5 6.6 6.5 7.1 7.1 7.3 7.2 7.2 7.3 7.9 8.8 9.3 9.4
0.3 0.2 0.1 0.1 0.0 -0.0 -0.1 -0.2 -0.3 -0.4 -0.5 -0.7 -1.0 -1.1 -1.1 -0.8 8.2 8.6 3.4 3.6 3.2 4.2 9.8 9.6 9.3 8.7 7.2 7.5 7.5 7.0 6.5 6.5 6.8 7.2 7.2 7.0 7.1 7.8 7.1 6.5 7.4 7.5 8.4 8.9 9.1
0.1 -0.1 -0.2 -0.3 -0.4 -0.5 -0.5 -0.4 -0.4 -0.4 -0.5 -0.8 -0.9 -1.0 -1.1 4.2 6.5 9.0 3.6 3.2 2.8 6.9 9.7 9.2 8.7 7.7 6.7 6.5 7.4 6.5 6.9 6.8 7.2 7.3 6.8 6.7 7.6 6.9 7.3 7.3 8.4 8.6 8.9 8.9 8.9
0.0 -0.1 -0.4 -0.3 -0.4 -0.7 -0.6 -0.6 -0.6 -0.8 -0.8 -1.0 -0.9 -0.8 3.2 8.3 8.3 8.2 3.2 2.9 6.2 8.6 9.2 8.7 8.1 7.7 6.5 6.7 7.0 6.5 6.7 7.1 7.3 7.3 7.1 7.4 7.0 6.9 7.2 8.1 8.6 8.8 8.8 8.8 8.9
-0.1 -0.2 -0.2 -0.4 -0.5 -0.8 -1.1 -1.2 -1.4 -1.4 -1.4 -1.2 -0.9 -0.9 6.9 7.0 10.0 9.8 9.1 7.3 9.7 9.5 9.2 9.1 8.3 8.4 7.1 6.9 6.6 6.9 7.0 7.1 7.2 7.2 6.9 6.7 6.8 7.4 7.6 8.4 8.4 8.5 8.5 8.8 8.8
-0.3 -0.4 -0.3 -0.4 -0.7 -1.0 -1.2 -1.6 -1.7 -1.7 -1.6 -1.4 -0.7 3.1 8.8 8.2 10.1 10.0 10.1 9.8 10.0 9.7 8.9 9.3 9.2 8.2 7.8 6.5 7.8 7.1 6.5 6.5 6.7 6.9 6.7 5.7 6.5 6.5 7.8 8.3 8.0 8.2 8.5 8.6 8.8
-0.5 -0.5 -0.4 -0.6 -1.0 -1.3 -1.7 -2.1 -2.2 -1.9 -1.7 -1.3 -0.5 6.2 8.0 10.0 9.8 10.0 10.2 9.8 10.1 10.1 9.6 9.6 9.4 8.5 7.9 7.9 7.1 6.5 6.5 6.5 6.5 6.7 7.0 6.9 6.5 6.6 7.9 7.9 7.7 8.1 8.3 8.4 8.7
-0.6 -0.9 -0.9 -1.1 -1.4 -1.9 -2.6 -2.9 -2.5 -1.8 -1.2 -0.5 3.9 8.4 7.5 5.7 9.2 9.9 10.0 9.2 9.5 9.6 9.5 9.4 9.1 8.0 7.7 6.5 6.5 6.5 6.5 6.5 6.5 6.7 6.5 6.5 6.5 6.8 7.9 7.8 7.6 7.9 8.2 8.3 8.5
-0.6 -1.0 -1.1 -1.6 -1.9 -2.5 -3.1 -3.4 -1.7 -1.3 0.8 5.4 9.1 8.2 8.7 8.2 9.3 9.6 10.1 9.6 8.9 8.8 8.4 8.3 7.9 6.5 6.5 6.5 6.5 6.5 6.5 6.5 6.5 6.5 6.5 6.5 6.5 6.5 7.5 7.4 7.1 7.4 7.9 7.8 8.1
-0.5 -0.9 -1.3 -1.9 -2.2 -2.8 -1.4 5.5 7.6 8.5 9.1 8.0 8.0 7.9 8.3 9.3 9.8 9.1 9.6 9.1 8.8 8.0 6.5 7.4 6.5 6.5 6.5 6.5 6.5 6.5 6.5 6.5 6.5 6.5 6.5 6.5 6.5 6.5 7.0 7.0 6.1 7.0 7.4 7.6 7.8
-0.6 -0.9 -1.5 -2.3 -3.0 -3.2 0.2 8.8 8.9 9.2 7.2 8.6 8.6 8.5 9.0 9.3 7.8 8.6 9.6 7.8 7.4 6.5 6.8 6.5 6.5 6.5 6.5 6.5 6.5 6.5 6.5 6.5 6.5 6.5 6.5 6.5 6.5 6.5 6.8 6.9 6.9 6.9 7.2 7.7 7.9
-0.7 -1.1 -1.6 -2.6 -3.3 -0.7 8.8 9.3 10.3 10.0 7.3 7.7 8.5 8.2 8.4 8.9 7.6 7.9 8.9 8.0 6.7 6.5 6.5 6.5 6.5 6.5 6.5 6.5 6.5 6.5 6.5 6.5 6.5 6.5 6.5 6.5 6.5 6.5 6.6 7.0 7.4 7.1 7.0 8.2 7.8
-1.0 -1.4 -1.8 -2.8 -0.8 9.7 9.1 10.0 10.3 10.0 6.5 6.5 7.0 7.9 8.5 8.5 7.0 8.9 9.1 8.0 6.7 6.5 6.5 6.5 6.6 6.5 6.5 6.5 6.5 6.5 6.5 6.5 6.5 6.5 6.5 6.5 6.5 6.5 6.5 6.5 6.7 7.2 7.3 7.2 8.0
-1.3 -1.9 -2.6 -3.9 5.0 9.2 9.5 10.3 10.4 9.3 6.5 6.5 6.9 9.1 8.6 7.4 7.7 7.6 9.1 8.0 6.5 6.5 6.5 6.5 6.5 6.5 6.5 6.5 6.5 6.5 6.5 6.5 6.5 6.5 6.5 6.5 6.5 6.5 6.5 6.5 6.5 6.7 7.5 7.4 4.7
-1.8 -3.4 -3.8 1.1 5.4 9.7 10.1 10.3 9.5 6.5 6.5 6.5 7.0 6.6 6.6 7.2 7.2 7.9 7.8 8.4 8.0 6.5 6.5 6.5 7.3 6.6 6.5 6.5 6.5 6.5 6.5 6.5 6.5 6.5 6.5 6.5 6.5 6.5 6.5 6.5 6.5 7.2 7.4 7.2 7.7
-3.6 -4.5 -3.1 6.1 9.1 10.0 10.3 9.3 6.5 6.5 6.5 6.5 6.5 6.5 6.5 6.5 6.5 6.5 6.5 6.5 6.5 6.5 6.5 6.5 6.5 6.5 6.8 6.5 6.5 6.5 6.5 6.5 6.5 6.5 6.5 6.5 6.5 6.5 6.5 6.5 6.6 6.9 7.3 7.8 8.2
-4.7 -5.4 0.5 7.4 9.5 9.8 9.7 6.7 6.5 6.5 6.5 6.5 6.5 6.5 6.5 6.5 6.5 6.5 6.5 6.5 6.5 6.5 6.5 6.5 6.5 6.5 6.5 6.5 6.5 6.5 6.5 6.5 6.5 6.5 6.5 6.5 6.5 6.5 6.5 7.1 7.4 7.8 8.0 8.2 8.1
-5.4 4.9 9.8 10.1 9.4 9.9 8.4 6.5 6.5 6.5 6.5 6.5 6.5 6.5 6.5 6.5 6.5 6.5 6.5 6.5 6.5 6.5 6.5 6.5 6.5 6.5 6.5 6.5 6.5 6.5 6.5 6.5 6.5 6.5 6.5 6.5 6.5 6.5 6.5 6.5 7.0 7.4 7.7 8.0 8.1
6.4 9.5 9.3 9.9 9.8 9.5 6.9 6.5 6.5 6.7 6.6 6.5 6.5 6.5 6.5 6.5 6.5 6.5 6.5 6.5 6.5 6.5 6.8 6.5 6.5 6.5 6.5 6.7 6.6 6.5 6.5 6.5 6.5 6.5 6.5 6.5 6.5 6.5 6.5 6.5 6.5 6.7 7.3 7.7 8.1
6.6 8.2 9.6 10.0 10.2 8.4 6.5 6.5 6.5 7.4 7.3 6.5 6.5 6.5 6.5 6.5 6.5 6.5 6.5 6.5 6.5 6.5 6.8 6.5 6.5 6.5 6.5 6.5 6.5 6.5 6.5 6.5 6.5 6.5 6.5 6.5 6.5 6.5 6.5 6.5 6.5 6.8 7.4 7.7 7.5
9.2 6.6 9.7 10.1 7.3 7.1 6.5 6.5 2.6 6.8 7.5 6.6 6.6 6.5 6.5 6.5 6.5 6.5 6.5 6.5 7.3 7.0 6.5 6.5 6.5 6.5 6.5 6.5 6.5 6.5 6.5 6.5 6.5 6.5 6.5 6.5 6.5 6.5 6.5 6.5 6.9 7.0 7.5 7.9 7.8
8.3 8.2 9.8 9.7 6.5 6.5 6.8 6.5 7.0 6.5 6.5 6.5 6.5 6.5 6.5 6.5 6.5 6.5 6.5 7.0 7.3 6.6 6.5 6.5 6.5 6.5 6.5 6.5 6.5 6.5 6.5 6.5 6.5 6.5 6.5 6.5 6.5 6.5 6.7 6.7 7.1 7.0 7.5 7.8 8.0
8.5 6.5 8.1 8.4 8.1 6.6 6.5 6.5 6.5 7.4 6.9 7.1 6.6 6.8 6.5 6.5 6.5 6.5 6.5 6.6 7.3 7.1 5.6 6.8 6.5 6.5 6.5 6.5 6.5 6.5 6.5 6.5 6.5 6.5 6.5 6.5 6.5 6.5 6.5 6.5 6.9 7.2 7.5 7.8 7.9
8.6 6.9 7.7 6.5 6.7 6.6 6.6 6.5 6.5 6.5 7.0 7.2 6.5 6.5 6.5 6.5 6.5 6.5 6.5 6.5 6.8 4.7 6.4 6.5 6.5 6.5 6.5 6.5 6.5 6.5 6.5 6.5 6.5 6.5 6.5 6.5 6.5 6.5 6.5 6.5 7.0 7.6 7.5 7.5 7.3
7.9 7.3 8.1 7.3 7.3 6.6 6.9 6.5 6.5 6.5 6.5 6.5 6.5 6.5 6.5 6.5 6.5 6.5 6.5 6.5 6.5 6.6 6.5 6.5 6.5 6.5 6.5 6.5 6.5 6.5 6.5 6.5 6.5 6.5 6.5 6.5 6.5 6.5 7.2 7.4 7.3 7.4 7.3 7.3 7.5
9.2 9.1 8.4 4.8 6.8 6.5 6.5 6.5 6.5 6.8 7.1 7.3 6.8 6.5 6.5 6.6 7.3 7.5 7.6 7.4 6.8 6.5 6.5 6.5 6.5 6.5 6.5 6.5 6.5 6.5 6.5 6.5 6.5 6.5 6.5 6.5 6.5 6.4 6.5 6.7 7.1 7.4 7.4 7.3 7.6
Wind_Speed
10 9 9 9 9 9 9 10 10 10 10 10 11 13 15 15 19 11 11 2 4 19 9 14 13 11 11 4 6 5 3 8 10 17 12 11 11 12 6 10 8 6 22 21 19
11 11 11 11 11 10 9 9 10 11 11 11 11 12 14 16 14 16 7 8 8 15 14 15 15 14 12 9 5 6 3 5 4 11 19 17 15 11 12 12 9 15 22 20 17
12 12 12 12 11 11 11 10 10 11 12 12 12 12 13 15 12 4 7 13 10 19 18 14 11 14 11 4 13 3 3 3 6 5 17 17 14 13 13 11 15 20 24 21 18
12 11 11 11 11 11 11 10 10 11 12 12 12 13 13 10 2 8 5 15 14 22 17 14 12 14 9 9 11 2 2 0 7 4 10 14 13 9 8 14 16 20 23 21 19
12 11 11 11 10 10 10 10 11 11 11 12 12 12 10 8 6 12 13 14 16 18 18 16 14 14 8 6 5 4 6 12 7 4 9 12 11 9 7 15 18 21 21 20 17
12 12 11 10 10 9 9 10 10 11 11 11 11 11 10 12 6 2 11 16 17 20 17 16 11 12 1 15 2 7 9 12 3 7 6 11 13 12 14 16 21 20 20 18 17
12 12 12 11 10 10 9 9 9 9 10 11 11 8 11 5 3 3 12 17 17 17 16 14 11 10 8 10 7 7 12 11 3 1 4 8 14 14 14 20 21 20 17 16 15
12 12 12 11 10 10 11 12 11 10 10 10 10 11 9 4 4 7 13 13 13 16 14 13 6 16 15 6 5 9 9 9 7 4 3 7 12 16 16 19 20 20 17 15 15
13 13 13 12 12 11 11 14 13 11 9 8 8 10 5 5 10 8 10 13 11 8 7 5 11 15 12 12 8 2 5 11 8 2 2 6 12 11 18 19 19 18 17 17 17
14 13 13 12 12 12 15 11 7 7 8 9 9 8 6 12 11 10 9 11 14 11 10 13 9 13 13 12 9 5 10 14 10 4 4 3 2 7 16 17 13 16 17 15 17
13 14 13 13 13 11 13 4 6 7 12 10 6 5 5 7 10 10 11 13 10 11 14 16 13 16 16 15 5 21 13 16 11 9 4 11 9 7 6 5 8 10 14 16 15
14 15 13 13 12 10 8 7 10 7 4 2 4 3 3 12 12 13 13 12 12 14 17 11 18 17 7 12 7 8 18 18 10 9 3 7 8 5 8 11 9 11 12 17 16
15 15 14 14 12 4 10 10 6 7 8 7 5 7 10 9 11 15 16 13 12 16 17 14 14 18 9 10 11 7 9 12 12 8 6 10 2 10 10 14 10 13 12 20 19
15 14 15 14 4 3 7 2 6 3 6 9 8 5 6 9 8 16 15 8 10 14 12 15 12 16 7 14 10 6 21 18 15 18 7 16 2 1 14 11 14 17 12 17 19
16 15 12 8 10 9 6 5 8 4 3 3 6 4 9 9 15 12 14 8 11 11 9 13 9 9 13 15 11 9 3 28 29 9 15 20 6 9 20 19 21 20 20 13 11
18 14 11 7 6 11 5 7 5 8 3 5 5 6 11 10 7 11 13 10 9 10 11 13 6 10 17 8 4 5 2 5 7 10 7 16 14 15 19 28 29 27 23 19 21
19 14 7 9 2 2 7 7 8 3 3 5 4 11 13 3 8 12 14 15 10 11 11 13 10 15 14 12 10 9 13 4 4 8 3 1 9 8 23 24 28 30 27 26 23
20 9 12 8 8 7 8 11 5 6 10 3 4 5 6 6 5 14 12 14 17 13 10 13 13 15 11 14 12 14 13 7 6 5 5 14 4 8 16 19 22 27 29 28 24
19 5 7 4 8 6 8 10 5 3 2 2 8 10 8 6 6 7 11 14 10 13 14 12 15 17 13 15 15 15 15 13 8 3 9 11 12 15 13 15 21 26 27 29 25
5 6 4 4 7 7 10 8 5 4 3 9 2 2 4 4 8 6 9 4 0 6 11 9 9 12 10 10 16 17 11 15 13 13 16 12 11 11 5 10 14 16 24 26 24
6 3 4 8 7 9 3 7 6 5 8 10 3 2 1 1 3 5 11 3 1 1 7 14 11 8 9 14 14 12 11 11 16 15 15 7 3 16 21 12 13 15 15 24 19
9 1 3 5 7 3 6 5 6 6 3 1 4 9 6 6 8 3 3 8 7 11 8 13 9 11 15 13 17 18 19 17 11 14 12 15 5 8 10 11 8 10 12 18 16
6 5 3 7 5 6 3 6 4 0 4 4 2 5 2 4 6 5 1 6 4 10 5 8 10 10 12 8 5 10 15 15 18 14 14 12 5 10 9 8 6 8 15 16 17
5 5 5 3 3 6 5 2 8 1 4 2 4 4 5 4 4 5 8 7 4 6 9 6 14 13 4 9 11 17 18 14 16 12 14 12 9 15 12 11 9 8 9 17 18
7 3 5 2 5 6 5 2 3 1 1 2 6 4 5 6 2 3 4 5 9 8 7 9 16 9 1 7 11 10 13 15 14 17 15 10 10 5 16 13 12 11 7 7 8
5 2 4 4 2 6 6 3 5 2 3 3 5 6 6 8 4 6 7 7 3 12 12 12 11 3 12 8 10 13 8 9 8 13 14 18 18 12 16 12 13 12 10 9 10
2 2 7 7 5 7 9 4 6 3 3 4 6 8 9 4 5 8 7 8 7 5 10 10 10 9 13 11 10 13 14 10 13 14 14 15 16 13 6 7 8 12 8 8 10
Wind_Direction
332 330 326 321 319 318 317 315 315 314 316 318 322 320 318 315 297 242 242 73 181 168 212 195 191 195 175 207 142 135 225 195 167 149 146 137 136 90 102 134 167 104 135 136 152
333 329 325 320 316 313 311 309 309 311 311 312 316 316 315 316 281 258 171 138 157 187 207 186 190 187 198 188 221 213 256 170 322 144 158 166 143 147 152 155 132 126 123 133 156
335 332 329 327 321 316 315 311 307 303 305 309 312 310 309 309 269 173 130 154 185 200 220 208 199 196 204 131 252 225 286 211 110 36 148 144 143 161 147 157 141 136 143 161 146
337 337 332 328 324 318 314 308 304 302 305 305 303 306 303 274 282 90 149 176 182 198 224 217 214 213 211 211 210 238 329 87 139 270 137 143 144 189 147 139 142 149 151 149 162
342 338 334 330 326 320 313 306 301 297 298 299 300 303 283 222 256 120 140 168 187 203 213 207 213 221 224 248 215 148 129 123 135 267 175 139 153 109 108 116 140 147 152 156 161
342 339 337 329 322 318 314 310 304 297 296 294 295 299 249 248 23 56 160 168 189 203 202 209 218 236 320 262 184 97 147 117 76 109 175 146 137 128 138 146 142 152 159 159 156
341 341 336 328 320 314 308 299 290 285 288 289 286 272 261 297 342 165 169 186 186 206 203 214 235 223 249 227 92 72 151 145 88 54 79 351 170 122 145 147 147 162 160 158 159
338 338 335 328 324 315 309 300 286 274 267 269 276 259 276 55 326 186 180 189 184 207 221 208 240 254 258 148 97 169 151 164 159 209 79 293 122 129 154 152 156 158 160 162 156
334 334 332 330 324 316 306 293 274 259 252 241 239 230 185 133 198 164 190 184 177 198 233 182 245 237 216 238 156 271 180 182 139 127 111 22 139 148 160 159 168 161 160 168 154
330 330 324 328 322 317 311 293 187 213 220 215 262 253 213 198 137 167 168 179 188 177 191 215 222 217 237 219 223 130 256 164 136 131 88 121 128 168 177 167 164 169 165 169 162
328 323 320 323 317 310 307 202 205 202 217 297 140 303 127 106 160 179 175 176 185 204 209 203 214 213 223 228 304 143 213 120 93 132 115 182 160 195 265 174 176 191 183 167 172
326 318 315 321 311 293 276 269 35 349 271 155 232 247 319 173 176 168 177 188 199 207 226 184 224 221 175 297 268 293 107 104 89 175 114 133 139 197 262 232 230 185 195 186 182
321 317 319 321 325 222 246 314 335 327 251 108 176 198 177 212 192 168 200 219 204 215 210 224 218 234 173 216 252 212 137 140 128 192 138 132 82 238 233 255 258 269 280 191 181
317 317 320 318 295 213 239 86 289 321 261 133 159 117 177 232 205 174 209 214 207 222 203 246 249 206 186 238 234 250 121 144 162 174 158 201 92 193 194 220 253 243 245 266 189
313 316 308 281 321 242 39 313 318 236 224 84 108 79 160 225 120 181 201 213 243 213 219 215 229 222 211 225 212 86 138 141 206 179 141 194 160 177 191 199 215 236 234 242 265
317 310 294 218 226 277 305 310 255 235 95 110 144 190 187 215 183 140 195 251 301 230 217 276 241 204 226 207 203 117 166 201 186 244 221 177 229 173 189 202 204 212 226 225 228
321 311 231 314 34 343 300 265 232 300 201 125 165 181 223 146 152 173 192 206 206 202 201 223 212 221 243 166 171 196 187 189 248 216 235 113 217 151 192 197 193 201 203 212 215
321 305 210 271 308 285 274 245 293 27 20 126 232 210 209 179 141 185 189 212 233 241 193 204 189 207 209 232 171 210 231 193 207 257 213 166 239 119 168 180 192 190 194 200 206
316 205 209 157 248 273 267 258 50 357 348 197 203 209 148 185 288 239 218 223 180 248 274 190 245 173 192 230 231 191 216 228 213 248 293 210 129 136 169 166 191 186 187 196 198
263 195 83 215 254 262 256 29 98 37 250 244 350 251 12 149 215 216 193 175 76 205 311 310 201 157 201 228 235 264 212 224 222 243 238 189 184 112 115 188 194 199 188 181 200
249 198 92 258 258 250 75 71 116 64 322 320 335 206 79 309 311 287 333 18 344 141 273 276 266 153 196 203 219 214 241 248 259 234 264 255 149 148 165 183 187 198 204 173 181
274 166 137 264 269 315 97 62 293 105 167 73 308 336 336 11 269 280 209 112 322 288 228 245 287 206 211 207 223 228 209 238 235 232 261 284 104 333 116 139 171 165 171 156 167
266 107 206 253 283 113 158 113 358 349 28 9 67 346 340 310 281 257 231 67 272 256 346 333 235 254 230 160 230 261 243 223 238 255 240 242 144 128 128 130 149 168 164 154 166
277 203 145 212 342 316 189 92 138 54 90 330 356 280 274 251 172 304 243 166 233 262 7 307 276 269 353 6 324 194 235 235 253 247 232 229 195 162 161 144 150 156 175 159 165
248 27 6 75 103 36 337 341 305 77 158 272 185 304 334 296 250 273 252 215 208 134 232 243 259 286 198 240 284 285 221 209 232 256 267 251 261 264 157 149 152 147 160 140 153
307 290 192 85 111 263 136 41 331 69 326 28 294 339 290 279 72 256 337 296 303 174 231 234 264 48 303 213 255 280 215 267 255 235 251 267 275 42 84 118 136 139 168 168 178
25 276 284 122 204 260 67 24 23 326 129 297 313 290 251 26 360 322 284 270 181 264 281 243 259 249 247 267 289 231 249 249 236 252 251 245 255 45 94 115 134 136 163 166 183